Preview of NWS' New Version of Forecast
This preview is not operational and should not be used for support decisions.

Regional Weather Roundup (RWR)

Issued by National Weather Service (NWS)

                            
000
ASUS43 KLSX 221657
RWRMO 

WEATHER SUMMARY FOR MISSOURI
NATIONAL WEATHER SERVICE SPRINGFIELD MO
1200 PM CDT MON APR 22 2019

NOTE: "FAIR" INDICATES FEW OR NO CLOUDS BELOW 12,000 FEET WITH NO
       SIGNIFICANT WEATHER AND/OR OBSTRUCTIONS TO VISIBILITY.
       CURRENT SKY AND/OR WEATHER CONDITIONS ARE NOT AVAILABLE FOR
       CHILLICOTHE AND FARMINGTON.

MOZ001>031-035>038-043-044-053-054-221800-
...NORTHERN AND WESTERN MISSOURI...
  
CITY           SKY/WX    TMP DP  RH WIND       PRES   REMARKS
KANSAS CTY INT CLOUDY    70  58  65 SW17G25   29.94R                  
LEE'S SUMMIT   CLOUDY    70  57  63 SW20G26   29.96R                  
ST JOSEPH      PTSUNNY   73  59  61 W20G25    29.92R                  
CHILLICOTHE      N/A     76  57  51 SW12G25   29.92R                  
     
$$
MOZ066>068-077>081-088>096-101>105-221800-
...SOUTHWEST MISSOURI...
  
CITY           SKY/WX    TMP DP  RH WIND       PRES   REMARKS
SPRINGFIELD    PTSUNNY   74  58  57 SW15G22   30.02F                  
JOPLIN         CLOUDY    70  59  68 SW20G25   30.02S                  
BRANSON        MOSUNNY   75  54  46 S14G22    30.06F                  
               
$$
MOZ032>034-039>042-045>050-055>058-069>072-221800-
...CENTRAL MISSOURI...  
  
CITY           SKY/WX    TMP DP  RH WIND       PRES   REMARKS
COLUMBIA       NOT AVBL                                               
JEFFERSON CITY MOSUNNY   79  56  45 S9G18     29.96S                  
ROLLA          SUNNY     78  55  44 SW14G24   29.99F                  
SEDALIA        CLOUDY    68  57  68 SW20G31   29.98R                  
WARRENSBURG    CLOUDY    70  55  60 S14G22    29.96R                  
               
$$
MOZ051-052-059>065-221800-
...EAST CENTRAL MISSOURI...
  
CITY           SKY/WX    TMP DP  RH WIND       PRES   REMARKS
ST LOUIS INTL  PTSUNNY   78  54  43 SE16G24   29.98F                  
                   
$$
MOZ072>076-082>087-097>100-106>115-221800-
...SOUTH CENTRAL AND SOUTHEAST MISSOURI...
  
CITY           SKY/WX    TMP DP  RH WIND       PRES   REMARKS
CAPE GIRARDEAU FAIR      73  57  57 S15       30.11F                  
POPLAR BLUFF   FAIR      73  55  53 S15       30.11F                  
WEST PLAINS    SUNNY     76  51  41 S13G23    30.07F                  
                                       
$$